BMCB-12 Weather Reports


time (UTC)temp
F
wind
direction
speed
knots
gust
knots
rain 1hr
in
rain 24hr
in
rain mn
in
humidity
%
barometer
mb
20260507134059 59 24 0.9 2.6 0.09 1.25 0.19 65 1017.5
20260507133059 58 252 0.0 0.9 0.09 1.25 0.19 61 1017.4
20260507132058 58 255 0.0 0.9 0.02 1.17 0.10 56 1017.5
20260507131059 58 279 0.0 0.9 0.01 1.16 0.09 59 1017.5
20260507130058 58 55 0.9 1.7 0.01 1.16 0.09 56 1017.6
20260507124100 58 34 0.9 2.6 0.02 1.16 0.09 60 1017.5
20260507123101 58 67 0.9 2.6 0.02 1.16 0.09 61 1017.4
20260507120058 59 57 2.6 6.1 0.01 1.15 0.09 55 1017.3
20260507115100 60 38 2.6 6.1 0.02 1.15 0.09 60 1017.2
20260507112103 60 50 2.6 5.2 0.01 1.14 0.08 59 1017.4
20260507111058 59 246 1.7 4.3 0.08 1.14 0.08 61 1017.4
20260507110058 58 1 1.7 3.5 0.08 1.14 0.08 63 1017.5
20260507105100 56 235 1.7 4.3 0.08 1.14 0.08 65 1017.5
20260506203106 49 53 2.6 6.1 0.01 1.06 1.06 83 1013.4
20260506195104 50 55 2.6 6.1 0.02 1.06 1.06 79 1012.9
20260506194106 51 55 2.6 5.2 0.01 1.06 1.06 79 1012.8
20260506193105 51 56 2.6 4.3 0.01 1.06 1.06 78 1012.8
20260506191104 52 64 0.9 2.6 0.01 1.06 1.06 78 1012.3
20260506190105 52 68 0.9 3.5 1.06 1.06 1.06 79 1012.3
20260506185106 52 18 0.9 1.7 1.06 1.06 1.06 85 1012.1
20260506184100 53 30 0.9 1.7 1.05 1.05 1.05 83 1011.9
20260506183105 53 106 0.0 0.9 1.05 1.05 1.05 84 1011.8
20260506182105 53 359 0.0 0.9 1.05 1.05 1.05 85 1011.7
20260506180104 53 320 0.0 0.9 1.05 1.05 1.05 87 1011.4